{"data":{"norad_id":51729,"intl_designator":"2022-016R","name":"STARLINK-3523","alt_names":[],"object_type":"PAYLOAD","status":"ACTIVE","operator":null,"country":"US","launch_date":"2022-02-21","launch_site_code":"AFETR","launch_vehicle":null,"mission":null,"orbit_class":"UNKNOWN","rcs_meters":null,"size_class":null,"mass_kg":null,"dimensions":null,"purposes":["comms"],"wikipedia_slug":null,"has_3d_model":false,"image_url":null,"decayed_at":null,"tle_current":{"epoch":"2026-09-20T04:36:32.472864Z","epoch_age_seconds":75069,"freshness":"FRESH","line1":"1 51729U 22016R   26263.19204251  .00001399  00000+0  52552-4 0  9992","line2":"2 51729  53.1594 150.8466 0001238  95.6919 264.4225 15.34386311253130","mean_motion":15.34386311,"eccentricity":0.0001238,"inclination_deg":53.1594,"raan_deg":150.8466,"arg_perigee_deg":95.6919,"mean_anomaly_deg":264.4225,"bstar":5.2552e-5,"rev_number":25313,"period_min":93.848595342428,"perigee_km":461.89702604364,"apogee_km":463.59082816119,"semimajor_km":6840.8809271024,"source":"CELESTRAK","updated_at":"2026-09-20T09:00:39.928924Z"}}}